[Iaude] MPEC M30: 2022 ML [a=1.25,e=0.19,i=16.1,H=25.2]

mpec at marsden.cfa.harvard.edu mpec at marsden.cfa.harvard.edu
Tue Jun 21 18:52:09 EDT 2022


M.P.E.C. 2022-M30                                 Issued 2022 June 21, 22:50 UT

     The Minor Planet Electronic Circulars contain information on unusual
         minor planets and routine data on comets.  They are published
    on behalf of Division F of the International Astronomical Union by the
          Minor Planet Center, Smithsonian Astrophysical Observatory,
                          Cambridge, MA 02138, U.S.A.

             Prepared using the Tamkin Foundation Computer Network

                              MPC at CFA.HARVARD.EDU
            URL https://www.minorplanetcenter.net/    ISSN 1523-6714

                                    2022 ML                                     


Observations:
     K22M00L KC2022 06 18.92874 16 03 53.38 +18 17 21.4          20.3 RoEM030K88
     K22M00L KC2022 06 18.93120 16 03 52.45 +18 16 56.3          20.5 RoEM030K88
     K22M00L  C2022 06 20.41940915 54 49.370+13 29 46.32         20.43GVEM030F52
     K22M00L* C2022 06 20.43028615 54 44.373+13 27 22.75         20.52wUEM030F52
     K22M00L  C2022 06 20.44105215 54 39.420+13 25 00.01         20.28wUEM030F52
     K22M00L  C2022 06 20.49529215 54 14.882+13 12 54.02               VEM030F52
     K22M00L  C2022 06 20.49574815 54 14.687+13 12 47.95         19.19GVEM030F52
     K22M00L KC2022 06 20.86881815 51 51.94 +11 46 39.5          19.9 GVEM030104
     K22M00L KC2022 06 20.88387015 51 44.75 +11 43 06.8          20.6 GVEM030104
     K22M00L KC2022 06 20.89943415 51 36.89 +11 39 21.6          20.6 GVEM030L01
     K22M00L IC2022 06 20.90087615 51 36.18 +11 39 01.7          20.5 GVEM030L01
     K22M00L IC2022 06 20.90496215 51 34.28 +11 38 03.2          20.7 GVEM030L01
     K22M00L IC2022 06 20.90664315 51 33.50 +11 37 39.1          20.6 GVEM030L01
     K22M00L KC2022 06 20.95000915 51 15.278+11 27 03.74         20.5 GVEM030J95
     K22M00L IC2022 06 20.95757515 51 11.777+11 25 15.46               VEM030J95
     K22M00L HC2022 06 20.98417 15 50 57.49 +11 19 02.9          20.3 GVEM030204
     K22M00L KC2022 06 21.00607 15 50 47.24 +11 13 45.0                VEM030204
     K22M00L KC2022 06 21.06781015 50 24.531+11 02 15.06         19.7 GXEM030Y00
     K22M00L KC2022 06 21.07735215 50 19.710+10 59 56.09               XEM030Y00
     K22M00L KC2022 06 21.08673415 50 14.998+10 57 37.70         19.5 GXEM030Y00
     K22M00L KC2022 06 21.12207615 50 05.51 +10 45 53.1          20.6 VuEM030H21
     K22M00L KC2022 06 21.12487415 50 04.14 +10 45 11.8          20.4 VuEM030H21
     K22M00L KC2022 06 21.12767215 50 02.76 +10 44 31.0          20.4 VuEM030H21
     K22M00L KC2022 06 21.13102815 50 01.09 +10 43 41.5          20.9 VuEM030H21
     K22M00L KC2022 06 21.14037 15 49 57.79 +10 41 24.2          20.3 rqEM030H36
     K22M00L KC2022 06 21.14873 15 49 53.66 +10 39 21.4          19.9 rqEM030H36
     K22M00L KC2022 06 21.15693 15 49 49.62 +10 37 20.6          20.1 rqEM030H36
     K22M00L  C2022 06 21.18083415 49 41.656+10 31 35.69         20.5 GVEM030654
     K22M00L  C2022 06 21.24323015 49 10.319+10 16 03.30         20.3 GVEM030654
     K22M00L  C2022 06 21.29879715 48 42.232+10 02 01.14         20.5 GVEM030654
     K22M00L mC2022 06 21.37187615 48 04.835+09 43 20.78         20.30GVEM030I52
     K22M00L mC2022 06 21.37214615 48 04.691+09 43 16.43         19.92GVEM030I52
     K22M00L mC2022 06 21.37241515 48 04.489+09 43 12.72         19.93GVEM030I52
     K22M00L mC2022 06 21.37268415 48 04.360+09 43 08.87         20.42GVEM030I52

Observer details:
104 San Marcello Pistoiese.  Observers P. Bacci, M. Maestripieri.  Measurers
    P. Bacci, L. Tesi, G. Fagioli.  0.60-m F4 Reflector + CCD.
204 Schiaparelli Observatory.  Observer L. Buzzi.  0.84-m f/3.5 reflector +
    CCD.
654 Table Mountain Observatory, Wrightwood-PHMC.  Observers N. Evans, P. Choi,
    N. Saini, C. Zhai, R. Trahan, M. Shao.  1.0-m Reflector + CCD.
F52 Pan-STARRS 2, Haleakala.  Observers J. Bulger, K. Chambers, T. Dukes, T.
    Lowe, A. Schultz, I. Smith.  Measurers S. Chastel, M. Huber, Y.
    Ramanjooloo, R. Wainscoat, R. Weryk, K. Chambers, T. de Boer, J. Fairlamb,
    H. Gao, C.-C. Lin, E. Magnier.  1.8-m Ritchey-Chretien + CCD.
H21 Astronomical Research Observatory, Westfield.  Observer R. Holmes.
    Measurers T. Linder, R. Holmes, L. Horn.  0.76-m f/3.0 astrograph + CCD.
H36 Sandlot Observatory, Scranton.  Observer G. Hug.  .56 meter reflector +
    CCD.
I52 Steward Observatory, Mt. Lemmon Station.  Observer R. A. Kowalski.
    Measurers E. J. Christensen, D. Fay, J. B. Fazekas, D. C. Fuls, A. R.
    Gibbs, A. D. Grauer, H. Groeller, J. K. Hogan, R. A. Kowalski, S. M.
    Larson, G. J. Leonard, D. Rankin, R. L. Seaman, A. Serrano, F. C. Shelly,
    K. W. Wierzchos.  1.0-m prime focus + CCD.
J95 Great Shefford.  Observer P. Birtwhistle.  0.41-m f/6.3 Schmidt-Cassegrain
    + CCD.
K88 GINOP-KHK, Piszkesteto.  Observer K. Sarneczky.  0.60-m Schmidt + CCD.
L01 Visnjan Observatory, Tican.  Observer K. Korlevic.  1.0-m f/2.9 reflector
    + CCD.
Y00 SONEAR Observatory, Oliveira.  Observer C. Jacques.  0.45-m f/2.9 0.45-m
    f/2.9 reflector + CCD.

Orbital elements:
2022 ML                                                  Earth MOID = 0.0228 AU
Epoch 2022 Aug. 9.0 TT = JDT 2459800.5                  Veres                   
M   7.24514              (2000.0)            P               Q                  
n   0.70316681     Peri.  215.23771     +0.59051506     +0.75814804             
a   1.2524598      Node    92.57251     -0.66223808     +0.65109857             
e   0.1938554      Incl.   16.07359     -0.46122953     +0.03580770             
P   1.40           H   25.27          G   0.15           U   7                  
Residuals in seconds of arc
220618 K88  0.0   0.2-    220620 L01  0.2+  0.0     220621 H36  0.1-  0.6-
220618 K88  0.0   0.2+    220620 J95  0.6-  0.1-    220621 H36  0.1-  0.1+
220620 F52  0.4-  0.5-    220620 J95  0.4+  0.3+    220621 H36  0.3+  0.6+
220620 F52  0.1-  0.1-    220620 204  0.0   0.4-    220621 654  0.0   0.1-
220620 F52  0.2-  0.0     220621 204  0.4+  0.1+    220621 654  0.1-  0.1-
220620 F52  0.3-  0.2-    220621 Y00  0.5+  0.9-    220621 654  0.1-  0.1-
220620 F52  0.1-  0.1-    220621 Y00  0.1+  0.0     220621 I52  0.4+  0.2+
220620 104  0.2+  0.2+    220621 Y00  0.1+  0.5-    220621 I52  0.2+  0.0
220620 104  0.2-  0.5+    220621 H21  0.2+  0.2-    220621 I52  0.9-  0.5+
220620 L01  0.3-  0.3-    220621 H21  0.3+  0.4-    220621 I52 (0.9-  0.8+)
220620 L01  0.7-  0.4+    220621 H21  0.3+  0.0
220620 L01  0.1-  0.1+    220621 H21  0.1+  0.0

Ephemeris:
2022 ML                  a,e,i = 1.25, 0.19, 16                  q = 1.0097
Date    TT    R. A. (2000) Decl.     Delta      r    Elong.  Phase     V
2022 05 22    17 02 23.3 +37 11 55   0.1936  1.1224   120.3    51.1    23.8
...
2022 06 06    16 45 33.4 +34 43 40   0.1178  1.0828   122.6    52.1    22.7
...
2022 06 14    16 25 23.6 +28 06 39   0.07840 1.0641   126.5    50.1    21.7
...
2022 06 20    15 57 36.5 +14 58 50   0.05146 1.0515   132.4    45.6    20.7
2022 06 21    15 50 56.0 +11 17 15   0.04753 1.0495   133.6    44.6    20.5
2022 06 22    15 43 22.7 +06 55 33   0.04388 1.0476   134.7    43.6    20.3
...
2022 06 28    14 26 11.7 -34 57 12   0.03309 1.0369   127.1    51.5    19.8
...
2022 07 06    10 05 19.2 -68 26 00   0.05519 1.0251    97.2    79.7    21.8
...
2022 07 21    06 36 54.0 -62 17 27   0.1236  1.0118    84.5    88.5    23.9

M. P. C. Staff               (C) Copyright 2022 MPC           M.P.E.C. 2022-M30




More information about the Iaude mailing list